This is the latest recevied weather packets stored in our database for station/object W5ADC. If no packets are shown the sender has not sent any weather packets the latest 10 day(s).
| Time | Temp. | Humidity | Pressure | Rain* | Wind** | Luminosity | Snow |
|---|---|---|---|---|---|---|---|
| 1778026146 | 25.56° C | 66% | 1001.5 hPa | 0 mm | - | 37 W/m² | - |
| 1778025844 | 25.56° C | 66% | 1001.5 hPa | 0 mm | - | 50 W/m² | - |
| 1778025540 | 25.56° C | 66% | 1001 hPa | 0 mm | - | 65 W/m² | - |
| 1778025238 | 26.11° C | 65% | 1001.1 hPa | 0 mm | - | 57 W/m² | - |
| 1778024934 | 26.67° C | 65% | 1000.8 hPa | 0 mm | - | 36 W/m² | - |
| 1778024632 | 26.67° C | 64% | 1001 hPa | 0 mm | - | 36 W/m² | - |
| 1778024329 | 26.67° C | 63% | 1001 hPa | 0 mm | - | 43 W/m² | - |
| 1778024027 | 27.22° C | 62% | 1001.1 hPa | 0 mm | - | 73 W/m² | - |
| 1778023724 | 27.78° C | 62% | 1001 hPa | 0 mm | - | 72 W/m² | - |
| 1778023422 | 28.33° C | 58% | 1000.7 hPa | 0 mm | - | 73 W/m² | - |
| 1778023118 | 28.89° C | 55% | 1000.5 hPa | 0 mm | - | 104 W/m² | - |
| 1778022816 | 28.89° C | 54% | 1000.6 hPa | 0 mm | - | 128 W/m² | - |
| 1778022514 | 29.44° C | 52% | 1000.3 hPa | 0 mm | - | 104 W/m² | - |
| 1778022211 | 29.44° C | 51% | 1000.3 hPa | 0 mm | - | 137 W/m² | - |
| 1778021907 | 30° C | 50% | 1000.1 hPa | 0 mm | - | 123 W/m² | - |
| 1778021605 | 31.67° C | 50% | 1000.1 hPa | 0 mm | - | 158 W/m² | - |
| 1778021299 | 31.67° C | 54% | 999.9 hPa | 0 mm | - | 223 W/m² | - |
| 1778020998 | 31.67° C | 53% | 999.9 hPa | 0 mm | - | 190 W/m² | - |
| 1778020695 | 31.11° C | 54% | 1000.1 hPa | 0 mm | - | 112 W/m² | - |
| 1778020392 | 31.67° C | 54% | 999.9 hPa | 0 mm | - | 116 W/m² | - |
| 1778020087 | 31.67° C | 54% | 999.7 hPa | 0 mm | - | 149 W/m² | - |
| 1778019784 | 31.67° C | 54% | 999.7 hPa | 0 mm | - | 338 W/m² | - |
| 1778019481 | 31.67° C | 54% | 999.6 hPa | 0 mm | - | 364 W/m² | - |
| 1778019177 | 31.11° C | 55% | 999.7 hPa | 0 mm | - | 172 W/m² | - |
| 1778018875 | 31.67° C | 55% | 999.5 hPa | 0 mm | - | 141 W/m² | - |
* Rain latest hour (hover to see other rain measurements)
** Current wind speed in m/s (hover to see current wind gust speed)